Wind_Speed
9 10 9 9 7 8 19 10 5 17 12 6 12 18 20 15 15 7 10 9 7 5 8 13 13 11 11 8 6 5 6 10 13 12 10 10 12 13 13 12 8 6 4 4 7 9 11 11 10
9 9 10 12 9 12 16 14 12 10 5 12 12 16 20 21 18 10 6 5 3 7 10 11 9 7 5 3 2 1 3 7 9 9 10 11 11 12 11 11 9 8 6 2 7 10 10 10 10
11 11 11 8 14 20 22 10 6 6 4 13 16 13 14 18 17 17 14 10 5 10 9 9 6 5 4 2 1 1 2 5 7 9 10 10 11 11 10 10 9 9 10 10 10 12 13 12 17
14 15 16 18 20 15 19 16 8 6 7 13 14 17 16 18 19 24 19 10 13 14 10 9 7 6 4 3 3 3 2 3 5 7 9 10 11 11 12 9 9 10 11 13 8 9 15 21 26
16 19 22 23 26 22 19 20 14 15 16 19 23 20 22 22 17 18 20 22 22 19 17 12 8 7 4 2 3 4 3 2 3 5 6 7 10 13 12 9 7 8 8 8 7 9 14 19 28
20 23 22 26 28 21 19 14 12 14 12 22 23 21 22 19 17 17 21 22 23 21 18 15 13 8 6 3 2 3 3 2 2 3 3 6 9 11 10 7 4 5 6 7 6 7 12 23 25
25 29 31 32 31 28 18 20 15 15 15 21 23 20 22 19 16 19 20 20 19 20 18 18 16 12 8 7 5 2 2 2 1 3 3 5 6 8 9 7 5 6 6 8 8 5 10 22 25
26 32 36 36 35 36 21 23 18 19 14 14 20 20 23 24 26 23 22 22 21 19 20 20 16 17 11 9 9 8 4 2 1 2 4 6 7 7 6 5 6 6 8 10 9 6 7 21 25
26 35 41 40 38 38 25 27 22 20 15 9 22 23 23 25 27 29 32 32 29 23 22 21 17 18 16 12 11 11 10 7 5 3 3 6 7 7 6 6 7 8 9 10 10 7 7 15 18
31 41 43 37 36 35 30 29 28 24 17 11 15 25 18 26 32 33 31 28 29 24 22 21 20 20 20 18 14 15 14 12 10 7 6 6 7 7 6 6 8 9 10 11 11 11 9 14 12
36 44 39 38 34 33 33 31 27 31 27 17 12 9 18 25 29 30 28 28 29 27 24 23 24 23 24 23 20 18 18 16 15 13 11 10 10 9 8 5 6 7 9 11 10 11 11 10 14
37 37 36 36 32 33 32 28 34 35 32 26 17 10 14 22 28 29 31 33 31 29 27 26 26 26 27 26 26 22 20 20 19 18 16 15 15 14 12 9 9 8 9 10 11 11 12 12 14
26 28 31 31 28 29 30 35 37 40 35 32 31 26 22 22 26 25 32 31 32 31 28 27 27 28 29 30 29 27 25 23 22 22 20 20 20 19 18 15 14 12 10 9 9 12 12 15 13
31 31 31 31 32 33 35 40 38 39 37 38 37 38 35 31 29 24 23 30 33 32 31 28 29 29 30 31 32 31 29 27 26 25 24 23 22 23 23 20 17 16 12 10 10 12 13 20 19
33 36 38 35 34 35 33 46 44 39 38 41 37 42 43 43 38 35 31 24 31 32 31 33 33 32 32 33 32 30 28 30 30 29 28 26 25 25 25 24 21 18 16 12 11 12 16 13 8
27 30 37 30 30 34 30 54 42 40 37 40 43 36 33 44 50 44 40 35 32 37 38 35 33 33 34 35 34 31 32 31 32 32 31 29 28 27 26 26 25 21 19 16 13 14 15 18 16
23 33 34 36 26 27 27 39 35 34 37 39 35 33 31 33 31 40 40 37 44 40 39 41 40 39 37 37 36 34 34 33 32 35 34 32 28 28 28 26 24 24 22 19 15 16 16 15 22
16 20 23 27 24 18 26 32 34 28 27 32 37 37 36 39 38 36 35 34 39 47 46 44 43 38 35 35 37 36 33 28 26 28 34 32 31 32 32 30 28 25 24 21 18 18 18 15 18
23 27 31 29 22 26 28 31 37 34 32 34 38 41 39 30 36 32 33 34 39 42 44 41 38 40 38 37 37 38 35 32 27 29 32 33 34 34 36 34 30 28 24 21 21 21 21 17 19
23 30 35 36 31 29 31 35 38 39 36 34 36 40 46 38 24 17 19 25 38 43 40 39 41 39 40 40 39 38 36 37 37 37 34 33 34 33 35 34 33 31 29 24 25 22 22 21 20
23 20 17 24 26 25 24 32 38 41 42 40 37 39 40 46 38 33 19 28 32 33 34 37 34 34 35 35 36 37 38 41 45 42 38 35 36 34 36 35 34 33 33 29 25 23 23 22 22
33 24 30 32 31 23 25 24 48 37 42 40 37 40 40 33 38 28 34 24 29 36 39 39 37 38 42 41 38 40 43 46 48 44 37 33 34 34 36 36 35 34 33 32 25 23 25 24 25
29 26 26 31 32 34 42 18 41 20 33 36 35 33 30 21 24 30 22 32 31 37 40 43 42 40 40 43 46 49 46 47 39 34 31 32 34 32 34 36 35 36 33 30 26 25 28 29 25
18 26 29 28 28 14 41 29 21 46 42 43 45 36 33 28 27 34 34 35 39 41 40 37 38 35 41 35 37 37 37 35 32 26 26 26 28 29 33 35 35 34 33 30 28 28 29 30 29
18 21 9 5 6 12 37 28 36 42 39 38 29 33 25 23 29 37 37 39 35 33 33 35 36 37 32 32 31 28 29 28 27 24 25 28 29 31 33 34 36 34 36 31 30 31 32 32 32
26 11 8 5 7 8 26 11 33 29 28 31 36 38 34 24 19 39 41 37 36 31 30 25 26 26 26 26 25 24 26 30 29 26 27 30 30 31 33 37 37 37 36 33 31 32 33 33 30
25 17 23 21 24 13 18 29 33 22 24 28 33 22 22 19 22 37 38 34 32 30 21 17 19 26 27 21 21 21 21 22 29 27 28 29 28 29 31 33 35 36 37 34 32 34 32 32 30
18 21 15 10 2 5 6 11 13 26 24 25 21 7 19 24 30 33 31 29 28 19 17 18 16 18 14 18 21 24 25 23 24 28 28 29 26 29 23 30 30 35 36 32 33 31 31 32 30
21 15 12 14 9 4 7 3 22 31 30 21 13 3 30 22 27 26 19 19 22 21 14 13 19 11 9 13 19 24 25 25 24 25 28 28 28 25 23 32 30 32 33 35 31 30 30 30 28
11 14 7 5 7 7 9 4 29 25 29 12 9 18 19 20 27 20 13 13 17 12 10 9 5 11 13 15 15 20 24 24 25 25 26 31 30 32 26 32 33 33 33 32 32 30 30 28 27
Wind_Direction
247 247 241 235 235 240 258 270 350 323 297 300 181 193 194 202 183 216 257 196 191 263 300 312 320 311 290 278 267 255 224 214 220 221 213 211 208 214 222 232 233 232 238 255 251 224 202 194 206
247 249 243 240 235 234 269 284 4 347 330 215 227 198 202 214 223 244 272 288 249 270 308 332 326 299 283 286 282 236 189 188 195 192 193 196 198 208 220 227 228 231 233 266 275 253 224 226 217
240 239 239 240 237 238 260 285 5 345 123 203 222 224 227 225 237 256 275 281 257 281 305 334 329 299 314 8 39 118 171 174 174 177 181 186 188 198 210 220 230 235 237 241 301 238 223 230 241
241 241 236 234 242 258 267 276 286 319 264 244 236 232 245 256 257 257 271 250 269 280 296 307 314 310 324 12 48 69 107 157 170 181 182 183 182 186 202 210 228 239 254 267 301 242 246 247 234
240 242 234 241 248 257 264 280 287 303 296 259 273 259 252 263 265 262 259 269 275 284 288 289 297 312 310 7 56 73 85 117 170 193 190 192 185 197 206 218 235 241 242 273 267 291 236 255 232
236 239 238 245 257 263 257 264 266 311 299 242 256 247 249 246 248 252 259 259 262 269 281 288 281 307 305 316 3 77 89 104 178 222 209 196 196 207 216 230 243 247 263 293 286 282 221 219 229
241 242 243 250 255 257 241 249 257 289 300 255 260 235 246 231 240 243 247 246 251 264 275 287 279 282 309 300 308 327 35 89 175 237 225 209 216 215 227 245 268 270 285 295 303 312 199 213 222
247 245 246 248 254 259 249 250 257 300 306 281 234 221 244 258 252 244 249 249 246 257 264 281 284 273 272 296 289 297 310 314 310 250 241 236 240 229 232 243 268 282 279 287 300 320 205 213 221
244 239 243 248 250 258 257 254 245 268 289 263 246 249 263 258 249 249 249 254 255 245 261 267 271 273 261 265 269 271 277 281 273 281 252 249 240 241 242 244 267 284 294 291 295 303 230 224 260
237 243 248 259 262 264 261 255 257 268 252 250 269 244 248 244 246 254 253 255 256 254 253 257 260 259 262 259 263 262 264 269 267 259 257 247 239 240 254 256 267 290 296 300 293 287 251 242 263
244 247 255 257 263 265 269 261 249 270 276 256 270 264 263 245 238 243 246 248 254 262 256 243 251 254 256 259 257 260 262 264 266 261 251 245 247 249 257 260 266 290 298 305 288 281 258 259 257
247 250 254 261 262 264 262 263 251 256 275 265 238 227 225 220 234 248 260 267 273 265 272 267 248 244 245 249 254 256 257 262 265 260 254 253 255 255 259 261 268 280 301 304 286 269 253 257 260
250 262 263 267 266 265 269 264 267 249 269 269 243 232 222 225 236 248 257 259 261 259 261 266 261 251 244 241 245 252 255 259 263 260 256 254 260 258 260 263 266 275 286 293 288 261 250 248 253
254 251 250 250 252 252 256 258 256 257 265 269 261 238 240 236 228 234 245 258 257 254 252 253 248 259 256 247 247 250 252 254 257 258 258 254 256 258 258 262 263 269 273 287 296 262 251 241 236
250 259 256 251 252 256 260 257 251 256 260 263 267 259 242 245 244 240 244 255 257 245 245 248 251 249 252 263 254 251 250 251 251 254 256 255 253 257 254 258 258 259 265 274 287 285 259 242 251
260 262 270 274 263 260 263 265 261 259 260 262 262 267 272 255 252 253 250 248 246 248 249 253 244 245 251 261 261 256 257 251 248 251 254 254 253 253 256 257 258 254 255 263 274 291 280 245 238
268 269 275 284 277 273 261 270 270 268 265 262 261 259 264 257 247 244 246 251 247 251 253 256 253 249 249 250 255 251 251 251 251 250 251 252 246 247 253 257 259 252 253 255 264 278 290 257 251
300 286 292 291 299 286 282 275 265 269 273 271 263 259 262 265 259 253 244 243 248 248 253 255 259 246 248 251 245 243 246 249 256 255 252 247 244 247 254 257 257 254 249 247 256 271 287 265 245
289 286 287 294 304 298 287 284 274 272 276 269 263 256 258 261 259 259 254 240 233 237 243 247 247 242 246 241 246 246 248 255 257 265 262 254 251 251 255 255 252 257 252 248 247 257 270 279 236
293 285 283 294 297 285 288 283 270 265 268 273 272 268 262 254 246 248 245 232 233 236 238 242 244 244 245 247 245 248 253 259 265 269 259 255 251 248 250 249 245 247 253 244 245 258 265 268 243
274 304 295 293 302 290 299 282 274 267 267 274 273 273 264 260 254 275 238 221 228 228 230 233 237 243 247 243 245 252 259 264 270 271 266 259 255 247 246 243 243 244 250 248 244 253 266 267 256
295 300 292 294 303 297 301 283 276 281 275 272 272 269 272 278 266 268 226 238 237 236 225 226 229 237 244 250 255 260 263 265 270 267 262 254 251 246 243 242 241 242 244 246 242 252 264 262 251
296 302 296 291 292 293 281 265 279 290 275 277 279 279 278 281 276 250 242 232 243 231 229 228 230 234 240 250 254 260 257 257 255 255 253 246 244 242 240 238 234 237 235 237 241 252 262 262 258
316 296 294 289 281 259 270 270 270 274 278 286 286 278 275 273 264 257 248 230 236 237 241 240 233 242 254 262 256 249 248 247 249 253 252 245 243 240 235 236 231 234 233 238 245 250 257 261 261
298 336 326 277 237 259 268 270 262 277 279 283 274 282 280 263 265 244 218 216 231 229 228 231 233 258 256 263 264 263 266 262 258 250 245 245 244 244 233 234 233 237 228 238 243 250 256 260 259
316 319 279 290 308 313 302 273 262 274 281 279 276 274 262 262 262 218 211 212 220 226 236 235 245 250 256 258 259 260 263 261 262 256 245 243 245 244 240 235 233 237 226 236 241 249 257 262 263
313 299 299 282 285 263 266 274 270 275 270 279 288 262 260 241 237 202 203 209 220 226 215 210 228 252 252 261 269 274 271 266 258 256 254 248 246 245 240 237 236 235 230 231 238 250 260 265 263
288 303 319 273 301 275 262 330 352 354 329 306 283 204 189 191 184 190 195 201 206 205 207 210 222 250 263 273 281 283 283 278 272 259 254 250 247 245 241 236 232 228 229 233 241 250 260 264 263
303 303 288 276 261 289 293 237 358 353 349 320 271 111 187 160 173 162 190 209 225 225 215 216 232 258 286 280 276 280 283 280 278 276 256 253 244 241 234 235 229 228 232 238 243 254 262 267 261
4 3 345 348 330 285 295 298 348 345 344 327 331 3 137 139 135 139 140 182 202 214 219 213 255 298 311 311 291 277 287 290 280 278 265 251 243 233 220 242 236 228 233 242 248 254 262 263 259
Height
3146 3146 3146 3147 3151 3146 3141 3143 3142 3142 3143 3143 3141 3140 3140 3139 3141 3147 3147 3147 3149 3152 3153 3153 3152 3151 3150 3148 3147 3146 3146 3145 3146 3147 3148 3148 3149 3151 3153 3154 3155 3154 3155 3156 3156 3156 3155 3153 3153
3144 3144 3145 3144 3146 3144 3139 3140 3143 3142 3141 3142 3142 3139 3138 3137 3138 3140 3144 3146 3148 3152 3152 3152 3151 3150 3149 3148 3147 3146 3145 3145 3145 3146 3146 3146 3148 3150 3152 3152 3153 3153 3154 3155 3155 3156 3156 3155 3153
3142 3142 3144 3142 3141 3140 3137 3141 3142 3143 3142 3143 3141 3139 3138 3138 3137 3138 3141 3144 3147 3149 3150 3151 3151 3150 3149 3148 3146 3146 3145 3145 3145 3145 3145 3146 3148 3150 3150 3151 3151 3152 3153 3153 3153 3155 3155 3153 3153
3138 3140 3140 3137 3135 3138 3136 3139 3142 3143 3142 3143 3140 3139 3137 3136 3138 3139 3140 3143 3145 3148 3148 3150 3150 3150 3149 3148 3146 3145 3145 3145 3144 3144 3145 3146 3148 3149 3149 3150 3151 3151 3152 3152 3151 3153 3155 3153 3152
3136 3135 3134 3130 3130 3133 3135 3136 3139 3140 3140 3141 3138 3138 3135 3133 3134 3136 3138 3142 3143 3146 3147 3148 3149 3149 3148 3147 3146 3146 3145 3145 3144 3144 3145 3146 3147 3148 3148 3148 3149 3149 3149 3150 3150 3150 3150 3150 3149
3133 3130 3128 3126 3127 3130 3131 3135 3136 3136 3132 3137 3134 3133 3131 3129 3130 3133 3135 3139 3141 3143 3145 3146 3146 3146 3146 3146 3146 3146 3145 3145 3144 3144 3145 3145 3146 3146 3147 3147 3147 3147 3147 3148 3148 3148 3148 3147 3148
3128 3125 3122 3122 3122 3124 3127 3127 3130 3131 3131 3134 3133 3130 3129 3128 3129 3130 3133 3135 3138 3140 3141 3142 3143 3143 3143 3144 3144 3144 3145 3145 3144 3144 3144 3145 3145 3146 3146 3146 3146 3146 3146 3146 3146 3146 3146 3147 3146
3124 3120 3116 3117 3119 3117 3124 3125 3127 3128 3127 3129 3129 3126 3125 3126 3125 3127 3130 3132 3135 3137 3137 3139 3140 3140 3141 3142 3142 3143 3143 3144 3143 3143 3144 3144 3144 3145 3145 3145 3145 3145 3145 3145 3144 3144 3144 3145 3144
3118 3112 3107 3110 3113 3112 3120 3119 3123 3122 3123 3124 3126 3125 3124 3122 3120 3121 3123 3125 3129 3134 3135 3135 3136 3137 3138 3139 3140 3140 3141 3142 3142 3142 3142 3143 3143 3144 3143 3143 3144 3144 3143 3143 3143 3142 3143 3145 3145
3110 3103 3102 3109 3111 3111 3113 3114 3114 3117 3117 3120 3120 3121 3121 3121 3119 3117 3117 3120 3122 3126 3131 3131 3131 3133 3134 3136 3136 3137 3138 3140 3140 3141 3141 3142 3142 3142 3142 3142 3142 3142 3142 3140 3141 3142 3143 3144 3144
3103 3096 3102 3103 3107 3108 3107 3107 3112 3110 3113 3116 3117 3118 3118 3117 3116 3116 3114 3114 3117 3120 3123 3127 3127 3128 3130 3132 3133 3134 3135 3136 3137 3139 3139 3139 3140 3140 3140 3140 3141 3140 3139 3139 3140 3141 3142 3142 3141
3096 3097 3098 3099 3103 3103 3101 3103 3100 3103 3106 3111 3112 3113 3114 3116 3116 3114 3113 3113 3114 3114 3117 3119 3122 3123 3125 3127 3129 3130 3131 3133 3134 3135 3136 3137 3138 3138 3138 3138 3138 3137 3137 3137 3137 3138 3139 3139 3138
3091 3092 3093 3095 3096 3096 3097 3094 3094 3092 3099 3104 3106 3106 3108 3109 3109 3110 3111 3109 3109 3110 3112 3113 3116 3118 3120 3122 3124 3126 3127 3129 3130 3131 3132 3133 3134 3135 3135 3135 3136 3135 3135 3135 3134 3135 3135 3136 3135
3087 3085 3084 3086 3088 3089 3089 3086 3089 3089 3092 3093 3097 3098 3099 3101 3102 3103 3102 3104 3102 3104 3106 3108 3110 3112 3113 3117 3119 3120 3122 3124 3125 3126 3128 3129 3130 3131 3131 3131 3132 3133 3133 3132 3131 3130 3131 3131 3131
3081 3079 3077 3080 3083 3083 3087 3073 3079 3084 3087 3085 3087 3089 3091 3091 3094 3094 3095 3095 3097 3097 3099 3101 3104 3105 3107 3110 3113 3115 3116 3118 3119 3121 3122 3123 3124 3126 3127 3127 3128 3129 3129 3129 3129 3127 3127 3128 3127
3078 3077 3071 3074 3080 3082 3086 3060 3076 3079 3080 3078 3079 3081 3082 3081 3083 3086 3089 3089 3092 3092 3092 3094 3096 3098 3100 3103 3105 3108 3109 3110 3112 3114 3116 3117 3119 3119 3121 3122 3124 3125 3125 3126 3125 3124 3123 3124 3124
3073 3068 3068 3068 3074 3074 3078 3065 3067 3072 3072 3070 3070 3069 3071 3070 3072 3074 3077 3079 3081 3083 3084 3086 3089 3091 3094 3096 3098 3099 3101 3102 3105 3107 3109 3111 3112 3113 3115 3116 3117 3119 3120 3121 3121 3120 3120 3119 3121
3070 3068 3065 3063 3067 3069 3067 3062 3056 3061 3062 3062 3062 3061 3063 3062 3062 3063 3065 3068 3070 3073 3075 3077 3080 3084 3085 3088 3088 3089 3092 3095 3097 3099 3102 3104 3105 3107 3108 3110 3111 3112 3114 3116 3116 3116 3116 3116 3118
3068 3067 3062 3060 3063 3063 3061 3056 3050 3052 3054 3054 3055 3055 3055 3056 3057 3056 3055 3057 3061 3064 3066 3068 3071 3076 3078 3079 3081 3081 3085 3089 3090 3093 3094 3096 3097 3099 3100 3103 3104 3106 3108 3111 3112 3112 3112 3112 3113
3063 3061 3057 3051 3055 3058 3054 3048 3045 3042 3044 3046 3046 3048 3047 3049 3051 3050 3048 3047 3053 3056 3058 3060 3064 3068 3071 3073 3075 3075 3078 3080 3083 3085 3085 3087 3088 3091 3093 3095 3098 3100 3102 3104 3106 3107 3107 3107 3108
3057 3058 3055 3049 3048 3047 3047 3040 3037 3034 3036 3037 3039 3039 3039 3040 3043 3043 3043 3045 3048 3052 3054 3057 3059 3061 3062 3064 3067 3069 3070 3071 3073 3076 3078 3079 3081 3082 3084 3087 3090 3092 3095 3097 3100 3101 3102 3102 3103
3047 3053 3049 3046 3044 3041 3043 3035 3023 3029 3028 3029 3030 3031 3032 3033 3034 3033 3039 3042 3044 3047 3048 3051 3054 3056 3057 3058 3060 3061 3062 3063 3065 3066 3069 3071 3071 3072 3076 3078 3081 3085 3088 3091 3093 3095 3096 3096 3097
3044 3044 3043 3040 3038 3038 3027 3033 3016 3021 3018 3019 3022 3024 3024 3026 3026 3025 3032 3037 3039 3040 3042 3045 3049 3051 3054 3055 3054 3052 3052 3055 3056 3057 3059 3060 3062 3063 3067 3069 3073 3077 3080 3084 3086 3088 3089 3090 3091
3041 3037 3035 3034 3033 3031 3021 3026 3021 3012 3012 3013 3015 3014 3013 3018 3020 3019 3022 3029 3031 3032 3035 3040 3044 3047 3047 3046 3043 3043 3045 3047 3047 3049 3051 3052 3055 3056 3058 3061 3065 3069 3072 3076 3080 3083 3083 3083 3083
3041 3038 3032 3029 3026 3020 3018 3017 3008 3008 3009 3009 3007 3004 3004 3007 3010 3010 3013 3017 3021 3025 3030 3034 3038 3041 3042 3040 3038 3037 3037 3039 3040 3041 3043 3044 3046 3048 3051 3054 3057 3061 3065 3070 3074 3076 3077 3076 3076
3043 3043 3043 3035 3025 3021 3016 3008 3001 3006 3003 3001 2998 2993 2995 2997 2996 3001 3007 3010 3012 3022 3028 3029 3030 3035 3034 3033 3031 3031 3031 3031 3032 3034 3034 3036 3038 3041 3043 3046 3048 3052 3058 3063 3066 3068 3069 3068 3067
3037 3037 3036 3031 3026 3021 3010 3004 3003 2996 2993 2993 2989 2984 2987 2990 2995 2999 3002 3005 3011 3018 3022 3023 3024 3026 3027 3026 3026 3026 3025 3025 3025 3026 3027 3029 3029 3032 3034 3037 3039 3044 3050 3055 3058 3060 3061 3061 3060
3037 3034 3030 3027 3027 3016 3004 3005 2999 2992 2988 2985 2985 2980 2983 2991 2994 2998 3000 3001 3005 3012 3015 3017 3018 3019 3022 3021 3020 3020 3019 3018 3018 3019 3021 3022 3023 3024 3027 3029 3032 3036 3042 3048 3049 3052 3053 3053 3052
3026 3026 3027 3024 3021 3015 3005 3001 2999 2995 2990 2985 2983 2984 2979 2980 2981 2983 2997 2998 3001 3007 3010 3011 3011 3014 3016 3017 3015 3014 3014 3013 3012 3011 3012 3014 3015 3018 3021 3024 3027 3030 3035 3040 3041 3043 3044 3044 3044
3025 3024 3023 3021 3018 3013 3010 3004 2999 2995 2990 2984 2982 2977 2976 2977 2983 2985 2985 2992 3000 3005 3004 3004 3008 3010 3010 3011 3010 3009 3007 3006 3005 3005 3005 3006 3007 3010 3013 3017 3020 3023 3026 3030 3033 3035 3036 3036 3036